This is the latest recevied weather packets stored in our database for station/object EA6AMI-5. If no packets are shown the sender has not sent any weather packets the latest 10 day(s).
| Time | Temp. | Humidity | Pressure | Rain* | Wind** | Luminosity | Snow |
|---|---|---|---|---|---|---|---|
| 1787603224 | 27.22° C | 82% | 1013.2 hPa | 0 mm | - | 0 W/m² | - |
| 1787602683 | 26.67° C | 84% | 1012.9 hPa | 0 mm | - | 0 W/m² | - |
| 1787602143 | 27.22° C | 87% | 1013.1 hPa | 0 mm | - | 0 W/m² | - |
| 1787601604 | 27.22° C | 87% | 1013.1 hPa | 0 mm | - | 0 W/m² | - |
| 1787601243 | 27.22° C | 87% | 1013 hPa | 0 mm | - | 0 W/m² | - |
| 1787600703 | 27.22° C | 88% | 1013 hPa | 0 mm | - | 0 W/m² | - |
| 1787600164 | 27.22° C | 88% | 1013 hPa | 0 mm | - | 0 W/m² | - |
| 1787599623 | 27.22° C | 88% | 1012.8 hPa | 0 mm | - | 0 W/m² | - |
| 1787599083 | 27.22° C | 88% | 1012.9 hPa | 0 mm | - | 0 W/m² | - |
| 1787598544 | 27.22° C | 88% | 1012.7 hPa | 0 mm | - | 0 W/m² | - |
| 1787598003 | 27.22° C | 87% | 1012.6 hPa | 0 mm | - | 0 W/m² | - |
| 1787597643 | 27.22° C | 87% | 1012.5 hPa | 0 mm | - | 0 W/m² | - |
| 1787597104 | 27.78° C | 86% | 1012.4 hPa | 0 mm | - | 0 W/m² | - |
| 1787596563 | 27.78° C | 85% | 1012.6 hPa | 0 mm | - | 1 W/m² | - |
| 1787596023 | 27.78° C | 84% | 1012.2 hPa | 0 mm | - | 3 W/m² | - |
| 1787595483 | 28.33° C | 82% | 1012.4 hPa | 0 mm | - | 3 W/m² | - |
| 1787594943 | 28.33° C | 80% | 1012.2 hPa | 0 mm | - | 3 W/m² | - |
| 1787594403 | 28.33° C | 80% | 1012.4 hPa | 0 mm | - | 7 W/m² | - |
| 1787594043 | 28.33° C | 79% | 1012.5 hPa | 0 mm | - | 15 W/m² | - |
| 1787593504 | 28.33° C | 79% | 1012.4 hPa | 0 mm | - | 29 W/m² | - |
| 1787592963 | 28.33° C | 78% | 1012.4 hPa | 0 mm | - | 30 W/m² | - |
| 1787592423 | 28.33° C | 77% | 1012.4 hPa | 0 mm | - | 38 W/m² | - |
| 1787591883 | 28.89° C | 78% | 1012.5 hPa | 0 mm | - | 60 W/m² | - |
| 1787591344 | 28.89° C | 79% | 1012.5 hPa | 0 mm | - | 61 W/m² | - |
| 1787590803 | 28.89° C | 79% | 1012.6 hPa | 0 mm | - | 48 W/m² | - |
* Rain latest hour (hover to see other rain measurements)
** Current wind speed in m/s (hover to see current wind gust speed)